Weather Service Report


469 
ASUS45 KPSR 290510
RWRAZ 

ARIZONA REGIONAL HOURLY WEATHER ROUNDUP
NATIONAL WEATHER SERVICE PHOENIX AZ
1000 PM MST SAT MAR 28 2015

NOTE: FAIR INDICATES FEW OR NO CLOUDS BELOW 12,000 FEET WITH NO
SIGNIFICANT WEATHER AND/OR OBSTRUCTIONS TO VISIBILITY.

AZZ001>003-036-290600-
NORTHWEST ARIZONA
  
CITY           SKY/WX    TMP DP  RH WIND       PRES   REMARKS
BULLHEAD CITY  CLEAR     79  23  12 E3        29.95S                  
KINGMAN        CLEAR     60  24  25 S12       30.11R                  
$$

AZZ004>008-015-016-018-290600-
NORTH CENTRAL ARIZONA
  
CITY           SKY/WX    TMP DP  RH WIND       PRES   REMARKS
GRAND CANYON   CLEAR     37  19  48 NE3       30.28R                  
WILLIAMS       CLEAR     54  18  24 SW7       30.37R                  
PRESCOTT       CLEAR     52  27  38 S9        30.22R                  
FLAGSTAFF      CLEAR     43  21  41 CALM      30.32S                  
PAYSON         CLEAR     59  21  23 CALM      30.24R                  
PAGE           CLEAR     67  19  16 SW3       30.11R                  
$$

AZZ009>014-017-290600-
NORTHEAST ARIZONA
  
CITY           SKY/WX    TMP DP  RH WIND       PRES   REMARKS
WINSLOW        CLEAR     61  20  20 SW15      30.17S                  
SAINT JOHNS    CLEAR     58   8  13 SW16      30.22R                  
WINDOW ROCK    CLEAR     45  12  26 CALM      30.25S                  
SHOW LOW       CLEAR     50  10  20 S12       30.31R                  
$$

AZZ023-290600-
GREATER PHOENIX AREA
  
CITY           SKY/WX    TMP DP  RH WIND       PRES   REMARKS
PHOENIX        PTCLDY    80  24  12 E6        29.96R                  
BUCKEYE        PTCLDY    68  30  24 CALM      29.97S                  
LUKE AFB       CLEAR     68  43  40 N6        29.96R                  
DEER VALLEY    PTCLDY    70  33  25 CALM      29.99R                  
SCOTTSDALE     CLEAR     77  28  16 NE3       30.01R                  
MESA-GATEWAY   CLEAR     68  30  24 VRB6      30.01R                  
$$

AZZ027-028-290600-
SOUTHWEST MARICOPA COUNTY AND PINAL COUNTY
  
CITY           SKY/WX    TMP DP  RH WIND       PRES   REMARKS
CASA GRANDE    PTCLDY    73  23  15 CALM      29.99S                  
GILA BEND      FAIR      74  18  12 S9        29.95S                  
$$

AZZ503-504-507>509-290600-
SOUTHEAST ARIZONA
  
CITY           SKY/WX    TMP DP  RH WIND       PRES   REMARKS
TUCSON         PTCLDY    71  25  17 SE6       30.09R                  
DAVIS-MONTHAN  CLEAR     68  27  21 S7        30.07R                  
NOGALES        PTCLDY    62  23  22 NE3       30.16R                  
SIERRA VISTA   PTCLDY    65  19  16 SW10      30.21R                  
DOUGLAS        CLEAR     59  22  24 N7        30.17R                  
SAFFORD        CLEAR     68  12  11 NW10      30.08R                  
$$

AZZ020-021-025-026-031-290600-
SOUTHWEST ARIZONA
  
CITY           SKY/WX    TMP DP  RH WIND       PRES   REMARKS
YUMA           PTCLDY    78  41  26 SW5       29.93R                  
$$

CAZ031-033-041-043-047-048-061-290600-
SOUTHERN CALIFORNIA
  
CITY           SKY/WX    TMP DP  RH WIND       PRES   REMARKS
DOWNTOWN L.A.  CLEAR     63  58  83 CALM      30.04R                  
L.A. AIRPORT   PTCLDY    60  57  89 SW5       30.05R                  
SAN DIEGO      CLOUDY    65  59  81 NW5       30.06S                  
BURBANK        CLEAR     69  54  58 CALM      30.04R                  
ONTARIO        PTCLDY    68  48  48 E3        30.05R                  
RIVERSIDE      CLEAR     69  42  37 CALM      30.05R                  
PALM SPRINGS   CLEAR     86  29  12 NW13      29.96R                  
EL CENTRO NAS  PTCLDY    79  32  18 W10       29.92R                  
IMPERIAL       PTCLDY    79  38  22 W8        29.91R                  
BLYTHE         CLEAR     79  30  16 W10       29.93R                  
NEEDLES        CLEAR     83  16   8 W12       29.95R                  
$$

NVZ020-UTZ003-290600-
SOUTHERN NEVADA-UTAH
  
CITY           SKY/WX    TMP DP  RH WIND       PRES   REMARKS
LAS VEGAS      CLEAR     76  19  11 S10       29.97R                  
SALT LAKE CITY CLEAR     53  33  46 N5        30.22R                  
$$

NMZ009-TXZ055-290600-
NEW MEXICO-WEST TEXAS
  
CITY           SKY/WX    TMP DP  RH WIND       PRES   REMARKS
ALBUQUERQUE    CLEAR     65  11  12 NW8       30.14R                  
EL PASO        CLEAR     77   3   5 CALM      30.09S                  
$$


........................KEY........................
SKY/WX - SKY CONDITION/WEATHER
TMP    - TEMPERATURE IN FAHRENHEIT
DP     - DEW POINT IN FAHRENHEIT
RH     - RELATIVE HUMIDITY IN PERCENT
WIND   - DIRECTION AND SPEED IN MILES PER HOUR (MPH)
VRB    - VARIABLE WIND DIRECTION
PRES   - MEAN SEA LEVEL PRESSURE IN INCHES OF MERCURY
         F - FALLING PRESSURE   R - RISING PRESSURE
         S - STEADY PRESSURE
VSB    - VISIBILITY IN MILES
HX     - HEAT INDEX IN FAHRENHEIT
WCI    - WIND CHILL INDEX IN FAHRENHEIT
TC     - TEMPERATURE IN CELSIUS WHICH IS ALSO KNOWN AS
         TEMPERATURE IN CENTIGRADE
AFB    - AIR FORCE BASE
         LUKE AFB IS LUKE AIR FORCE BASE
         DAVIS-MONTHAN IS DAVIS-MONTHAN AIR FORCE BASE
NAS    - NAVAL AIR STATION
         EL CENTRO NAS IS EL CENTRO NAVAL AIR STATION
N/A    - NOT AVAILABLE


Return to Home page


Western Regional Climate Center, wrcc@dri.edu